Weather History for Sevilla, Spain

Change the Weather History Date:

Thursday, October 11, 2012

  Actual Average Record
Temperature  
Mean Temperature 73 °F -  
Max Temperature 82 °F 72 °F 91 °F (2011)
Min Temperature 64 °F 54 °F 46 °F (2002)
Cooling Degree Days 8    
Growing Degree Days 23 (Base 50)    
Moisture  
Dew Point 60 °F    
Average Humidity 67    
Maximum Humidity 94    
Minimum Humidity 32    
Precipitation  
Precipitation 0.00 in - - ()
Sea Level Pressure  
Sea Level Pressure 29.97 in    
Wind  
Wind Speed 6 mph ()    
Max Wind Speed 22 mph    
Max Gust Speed -    
Visibility 6.2 miles    
Events      
Averages and records for this station are not official NWS values.
T = Trace of Precipitation, MM = Missing Value Source: Averaged Metar Reports

Daily Weather History Graph

Daily Weather History Graph

Search for Another Location

Airport:

Trip Planner

Search our weather history database for the weather conditions in past years. The results will help you decide how hot, cold, wet, or windy it might be!

Date:

Astronomy

Oct. 11, 2012 Rise Set
Actual Time 8:28 AM CEST 7:51 PM CEST
Civil Twilight 8:01 AM CEST 8:17 PM CEST
Nautical Twilight 7:31 AM CEST 8:48 PM CEST
Astronomical Twilight 7:01 AM CEST 9:18 PM CEST
Moon 3:57 AM CEST (10/11) 5:15 PM CEST (10/11)
Length of Visible Light 12h 15m
Length of Day
11h 23m
Waning Crescent, 20% of the Moon is Illuminated
Oct 11
Waning Crescent
Oct 15
New
Oct 22
First Quarter
Oct 29
Full
Nov 7
Last Quarter

Hourly Weather History & Observations

Time (CEST) Temp. Heat Index Dew Point Humidity Pressure Visibility Wind Dir Wind Speed Gust Speed Precip Events Conditions
12:30 AM 69.8 °F - 64.4 °F 83% 29.98 in - SSW 8.1 mph - N/A   Clear
1:00 AM 69.8 °F - 64.4 °F 83% 29.98 in - SSW 8.1 mph - N/A   Clear
4:30 AM 68.0 °F - 64.4 °F 88% 29.98 in - SSW 3.5 mph - N/A   Clear
5:00 AM 68.0 °F - 64.4 °F 88% 29.98 in - SSW 6.9 mph - N/A   Clear
5:30 AM 66.2 °F - 62.6 °F 88% 29.95 in - Variable 2.3 mph - N/A   Clear
6:00 AM 66.2 °F - 62.6 °F 88% 29.95 in - Variable 1.2 mph - N/A   Clear
6:30 AM 66.2 °F - 62.6 °F 88% 29.95 in - Variable 1.2 mph - N/A   Clear
7:00 AM 66.2 °F - 62.6 °F 88% 29.98 in - Variable 2.3 mph - N/A   Clear
7:30 AM 66.2 °F - 62.6 °F 88% 29.98 in 6.2 mi Variable 1.2 mph - N/A   Partly Cloudy
8:00 AM 66.2 °F - 62.6 °F 88% 29.98 in 6.2 mi Variable 2.3 mph - N/A   Partly Cloudy
8:30 AM 64.4 °F - 62.6 °F 94% 29.98 in 6.2 mi Variable 1.2 mph - N/A   Partly Cloudy
9:00 AM 64.4 °F - 62.6 °F 94% 29.98 in 6.2 mi Calm Calm - N/A   Partly Cloudy
9:30 AM 66.2 °F - 62.6 °F 88% 30.01 in 6.2 mi Calm Calm - N/A   Scattered Clouds
10:00 AM 68.0 °F - 62.6 °F 83% 30.01 in 6.2 mi South 1.2 mph - N/A   Scattered Clouds
10:30 AM 68.0 °F - 62.6 °F 83% 30.01 in 6.2 mi Variable 1.2 mph - N/A   Scattered Clouds
11:00 AM 71.6 °F - 62.6 °F 73% 30.01 in 6.2 mi Calm Calm - N/A   Partly Cloudy
11:30 AM 73.4 °F - 62.6 °F 69% 30.01 in 6.2 mi WNW 3.5 mph - N/A   Partly Cloudy
12:00 PM 73.4 °F - 62.6 °F 69% 30.01 in 6.2 mi WNW 3.5 mph - N/A   Partly Cloudy
12:30 PM 75.2 °F - 60.8 °F 61% 30.01 in 6.2 mi West 3.5 mph - N/A   Partly Cloudy
1:00 PM 77.0 °F - 59.0 °F 54% 29.98 in 6.2 mi WSW 6.9 mph - N/A   Partly Cloudy
1:30 PM 78.8 °F - 59.0 °F 51% 29.98 in 6.2 mi WSW 9.2 mph - N/A   Scattered Clouds
2:00 PM 80.6 °F 80.8 °F 57.2 °F 45% 29.98 in 6.2 mi WSW 6.9 mph - N/A   Scattered Clouds
2:30 PM 80.6 °F 80.5 °F 55.4 °F 42% 29.98 in 6.2 mi West 9.2 mph - N/A   Scattered Clouds
3:00 PM 82.4 °F 81.4 °F 53.6 °F 37% 29.95 in 6.2 mi WSW 12.7 mph - N/A   Partly Cloudy
3:30 PM 82.4 °F 81.4 °F 53.6 °F 37% 29.95 in 6.2 mi WSW 12.7 mph - N/A   Partly Cloudy
4:00 PM 82.4 °F 81.4 °F 53.6 °F 37% 29.95 in 6.2 mi WSW 11.5 mph - N/A   Partly Cloudy
4:30 PM 82.4 °F - 51.8 °F 35% 29.92 in 6.2 mi West 13.8 mph - N/A   Partly Cloudy
5:00 PM 82.4 °F - 50.0 °F 32% 29.92 in 6.2 mi SW 11.5 mph - N/A   Partly Cloudy
5:30 PM 82.4 °F - 50.0 °F 32% 29.92 in 6.2 mi WSW 9.2 mph - N/A   Partly Cloudy
6:00 PM 80.6 °F 81.1 °F 59.0 °F 48% 29.92 in - SW 13.8 mph - N/A   Clear
6:30 PM 78.8 °F - 59.0 °F 51% 29.92 in - SW 21.9 mph - N/A   Clear
7:00 PM 77.0 °F - 59.0 °F 54% 29.92 in - SW 18.4 mph - N/A   Clear
7:30 PM 77.0 °F - 57.2 °F 50% 29.92 in - WSW 16.1 mph - N/A   Clear
8:00 PM 75.2 °F - 59.0 °F 57% 29.95 in - SW 12.7 mph - N/A   Clear
8:30 PM 73.4 °F - 60.8 °F 65% 29.95 in - SW 13.8 mph - N/A   Clear
9:00 PM 73.4 °F - 60.8 °F 65% 29.95 in - SW 12.7 mph - N/A   Clear
9:30 PM 71.6 °F - 60.8 °F 69% 29.98 in - SW 11.5 mph - N/A   Clear
10:00 PM 71.6 °F - 62.6 °F 73% 29.98 in 6.2 mi SW 9.2 mph - N/A   Partly Cloudy
10:30 PM 69.8 °F - 62.6 °F 78% 29.98 in 6.2 mi SW 8.1 mph - N/A   Partly Cloudy
11:00 PM 69.8 °F - 62.6 °F 78% 29.98 in 6.2 mi SW 6.9 mph - N/A   Partly Cloudy
11:30 PM 68.0 °F - 62.6 °F 83% 29.98 in 6.2 mi South 5.8 mph - N/A   Partly Cloudy